Location: Chakepay
(13.3931°S, 72.1925°W)
Time: 23:17:21
(UTC+00:00)

Cosmos 1153 Rocket - Pass Details

Date: 15 November 2019
Orbit: 954 x 1006 km, 82.9° (Epoch: 14 December)

Event Time Altitude Azimuth Distance (km) Brightness Sun altitude
Rises 09:09:38 0° 189° (S) 3,698 7.7 -14.8°
Reaches altitude 10° 09:12:11 10° 191° (S) 2,738 7.0 -14.3°
Maximum altitude 09:18:24 68° 272° (W) 1,041 4.4 -12.9°
Drops below altitude 10° 09:24:30 10° 354° (N) 2,684 6.5 -11.5°
Sets 09:26:59 0° 357° (N) 3,620 7.2 -11.0°
